Location: Hauppauge
(40.8260°N, 73.2030°W)
Time: 00:55:50
(UTC-04:00)

Daily predictions for brighter satellites

Satellite Brightness Start Highest point End
(mag) Time Altitude Azimuth Time Altitude Azimuth Time Altitude Azimuth
Cosmos 2237 Rocket 3.8 00:01:37 10° NW 00:05:54 22° W 00:07:04 21° WSW
Cosmos 2251 Rocket 3.5 00:06:36 10° NNW 00:11:56 72° ENE 00:12:29 66° ESE
SL-08 ROCKET BODY 4.4 00:11:55 60° S 00:13:10 85° E 00:19:21 10° N
Cosmos 1892 3.7 00:17:14 43° NNE 00:17:14 43° NNE 00:19:57 10° NNE
BREEZE-M DEB (TANK) 3.5 00:09:49 10° WNW 00:18:02 50° NNE 00:19:08 37° ENE
H-2A R/B 4.3 00:17:35 12° WSW 00:19:25 14° W 00:22:11 10° WNW
Cosmos 2084 Rocket 4.1 00:20:57 44° NNE 00:20:57 44° NNE 00:23:40 10° NNE
Cosmos 2074 Rocket 4.1 00:19:31 51° SSW 00:21:07 72° W 00:27:26 10° N
Cosmos 1610 Rocket 4.3 00:20:52 62° SSE 00:21:56 81° E 00:28:05 10° N
Cosmos 44 3.5 00:22:02 68° ESE 00:22:02 68° ESE 00:27:22 10° NE
Nadezhda 3 Rocket 4.3 00:16:48 10° N 00:22:55 56° E 00:24:13 47° ESE
Cosmos 921 Rocket 4.0 00:25:14 38° ENE 00:25:14 38° ENE 00:28:13 10° NNE
Cosmos 1674 Rocket 4.0 00:21:52 10° N 00:25:53 56° ENE 00:25:53 56° ENE
SeaSat 1 2.5 00:26:25 63° WSW 00:26:25 63° WSW 00:31:16 10° NNW
Meteor 2-3 Rocket 4.0 00:25:13 51° SW 00:26:23 63° WNW 00:32:05 10° N
Cosmos 1607 4.1 00:20:41 10° NNW 00:26:49 66° NE 00:28:29 47° ESE
Cosmos 1238 Rocket 4.4 00:26:05 10° NNE 00:28:33 25° NE 00:28:33 25° NE
Cosmos 494 Rocket 4.0 00:24:30 10° NNW 00:29:47 71° ENE 00:30:12 67° ESE
CZ-4B R/B 3.0 00:37:08 35° NNW 00:37:08 35° NNW 00:39:13 10° NNW
Lacrosse 4 Rocket 3.4 00:32:20 10° NW 00:34:52 21° W 00:34:52 21° W
MOS 1-B Rocket 4.2 00:34:50 46° ESE 00:36:01 55° ENE 00:41:28 10° N
Cosmos 1356 Rocket 4.0 00:37:49 54° NNE 00:37:49 54° NNE 00:41:01 10° N
Cosmos 1825 4.2 00:38:20 21° ENE 00:38:20 21° ENE 00:40:21 10° NE
ASTEX 1 3.3 00:32:25 10° N 00:37:18 75° W 00:37:24 74° W
Meteor 1-10 Rocket 4.2 00:31:49 10° N 00:37:48 86° E 00:38:38 68° SSE
GEOS 3 Rocket 3.4 00:38:27 77° SSE 00:38:49 86° SW 00:44:03 10° NW
Cosmos 1908 Rocket 4.2 00:44:43 48° ENE 00:44:43 48° ENE 00:48:16 10° NNE
Cosmos 2263 Rocket 2.9 00:46:18 38° ESE 00:46:18 38° ESE 00:51:26 10° NE
NOSS 3-4 (A) 3.6 00:50:43 55° SE 00:51:13 57° ESE 00:57:36 10° NE
NOSS 3-4 (C) 3.6 00:50:49 55° SE 00:51:19 56° ESE 00:57:42 10° NE
NOSS 3-2 (A) 4.2 00:44:04 10° NNW 00:51:31 66° NE 00:55:40 31° SE
Cosmos 2154 Rocket 3.9 00:50:46 62° SSW 00:51:56 84° W 00:58:16 10° N
Meteor 2-10 Rocket 3.9 00:46:34 10° NNW 00:52:05 57° W 00:52:36 55° WSW
COSMOS 2455 4.5 00:53:03 10° WNW 00:57:11 20° WSW 00:57:11 20° WSW
CZ-4C R/B 2.9 00:51:39 10° NNW 00:58:48 82° NE 01:01:44 42° SE
SL-16 R/B 4.0 00:56:21 10° WNW 01:00:01 18° W 01:00:04 18° W
Landsat 5 4.3 01:01:26 47° WNW 01:01:26 47° WNW 01:05:16 10° NNW
Okean 3 4.2 00:56:40 10° N 01:00:29 48° ENE 01:00:29 48° ENE
Cosmos 1782 3.9 01:01:12 10° NNW 01:04:04 40° NW 01:04:04 40° NW
CZ-2C R/B 2.4 01:03:21 10° NNE 01:08:35 82° ESE 01:08:48 79° SE
H-2A R/B 3.9 01:05:15 10° N 01:08:59 31° WNW 01:09:09 30° WNW
Cosmos 1733 Rocket 4.4 01:14:20 30° WNW 01:14:20 30° WNW 01:18:16 10° NNW
Sich 1 Rocket 4.3 01:19:01 45° WNW 01:19:01 45° WNW 01:23:09 10° N
Helios 1A Rocket 3.9 01:18:10 10° N 01:21:50 39° WNW 01:21:50 39° WNW
Cosmos 1943 3.0 01:17:02 10° NNW 01:22:42 76° WSW 01:23:07 72° SSW
Meteor 2-13 Rocket 4.3 01:23:26 64° S 01:24:28 88° W 01:30:39 10° N
BREEZE-M TANK 3.3 01:20:55 10° WNW 01:26:35 46° N 01:27:41 30° NE
Cosmos 2341 Rocket 4.3 01:25:29 47° WSW 01:26:53 57° W 01:33:11 10° N
Cosmos 1378 Rocket 4.0 01:22:37 10° NNW 01:26:17 52° NW 01:26:17 52° NW
Cosmos 1371 Rocket 4.2 01:26:46 57° ESE 01:27:01 58° ESE 01:32:16 10° NNE
Cosmos 2056 Rocket 4.1 01:27:49 42° ESE 01:28:02 42° ESE 01:32:58 10° NNE
Cosmos 1959 Rocket 4.5 01:28:39 58° SSE 01:29:53 76° E 01:36:07 10° N
SL-08 R/B 4.5 01:30:00 58° SSE 01:31:15 75° E 01:37:33 10° N
Meteor 1-27 Rocket 3.9 01:26:03 10° NNW 01:31:45 56° W 01:32:16 54° WSW
RESURS DK-1 3.0 01:33:53 52° ENE 01:33:53 52° ENE 01:37:13 10° NNE
Cosmos 1606 4.2 01:32:26 10° NNW 01:34:52 29° NW 01:34:52 29° NW
SL-8 Rocket 3.9 01:35:25 59° SSW 01:36:43 80° W 01:43:05 10° N
Abrixas rocket 4.2 01:44:39 27° NE 01:44:39 27° NE 01:46:22 10° NE
Meteor 1-14 Rocket 4.4 01:43:50 55° SSE 01:44:59 69° E 01:50:51 10° NNE
Cosmos 909 Rocket 4.1 01:46:44 54° S 01:48:11 70° ESE 01:55:25 10° NE
Cosmos 2218 Rocket 3.9 01:47:11 57° SSW 01:48:33 79° W 01:54:56 10° N
PSLV R/B 4.5 01:53:12 50° NW 01:53:12 50° NW 01:56:28 10° NNW
Cosmos 1782 Rocket 4.3 01:53:08 41° WNW 01:53:08 41° WNW 01:57:05 10° N
Cosmos 1408 4.2 01:55:31 28° NW 01:55:31 28° NW 01:58:10 10° NNW
Okean 2 Rocket 3.6 01:55:06 49° WNW 01:55:06 49° WNW 01:59:23 10° N
SL-27 R/B 4.3 01:51:49 10° N 01:55:00 27° ENE 01:55:31 26° E
Iridium 4 Rocket 3.7 01:54:46 10° N 01:59:31 62° E 02:00:25 52° SE
Cosmos 2366 rocket 3.9 01:59:26 54° SW 02:00:50 72° W 02:07:02 10° N
USA 234 4.0 01:57:29 10° ESE 02:03:47 53° NNE 02:10:06 10° NW
ATLAS 2A CENTAUR R/B 4.3 02:06:14 24° SSE 02:06:14 24° SSE 02:16:05 10° ESE
CENTAUR R/B 3.8 02:00:22 10° NNW 02:07:56 52° NE 02:15:58 10° SE
Meteor 1-18 Rocket 4.3 02:04:29 10° N 02:10:10 73° E 02:12:03 44° SSE
ERS-2 4.0 02:07:23 10° NE 02:10:20 22° E 02:10:25 22° E
Cosmos 1184 Rocket 4.3 02:12:00 32° NW 02:12:00 32° NW 02:14:14 10° N
Cosmos 1624 Rocket 4.0 02:11:16 59° WSW 02:12:06 70° WNW 02:17:21 10° NNE
Cosmos 1825 4.2 02:13:16 19° WNW 02:13:16 19° WNW 02:15:37 10° NNW
CZ-2C R/B 3.9 02:12:41 39° WSW 02:13:08 39° W 02:18:23 10° NNW
Cosmos 1300 Rocket 4.2 02:13:47 41° ESE 02:14:19 44° E 02:18:28 10° NNE
Cosmos 1975 Rocket 4.5 02:11:35 10° NNW 02:14:38 25° WNW 02:14:38 25° WNW
JB-3 4.4 02:12:41 10° NNE 02:16:23 70° ENE 02:16:23 70° ENE
Gbstr 26 Del rocket 3.5 02:17:42 43° E 02:17:42 43° E 02:20:39 10° ENE
Cosmos 1867 4.0 02:11:53 10° NW 02:16:46 43° WSW 02:16:46 43° WSW
NOSS 3-2 (C) 4.2 02:12:50 10° NW 02:20:05 49° WSW 02:22:14 40° SSW
Meteor 1-20 Rocket 4.3 02:21:10 45° SSE 02:22:57 72° E 02:28:44 10° NNE
Cosmos 1727 Rocket 4.2 02:18:13 10° NNW 02:24:16 55° W 02:25:47 44° SW
Cosmos 1812 2.9 02:20:35 10° N 02:24:28 64° E 02:24:38 63° E
Cosmos 1844 Rocket 3.0 02:24:56 42° SSE 02:26:29 56° ESE 02:32:01 10° NNE
Cosmos 1536 Rocket 3.5 02:23:01 10° NNW 02:27:22 65° W 02:27:28 64° WSW
Cosmos 2263 Rocket 3.4 02:27:59 24° W 02:30:10 32° WNW 02:35:13 10° N
USA 161 4.4 02:30:25 11° E 02:31:38 14° ENE 02:33:11 10° NE
Cosmos 1452 Rocket 3.5 02:32:25 50° S 02:33:45 72° ESE 02:39:00 10° NNE
Cosmos 1242 Rocket 4.0 02:30:39 10° NNW 02:32:43 26° NW 02:32:43 26° NW
ARIANE 5 R/B 4.4 02:31:05 10° NE 02:34:55 22° E 02:37:47 14° SE
IRS-P3 4.1 02:33:27 10° NNE 02:38:50 87° ESE 02:40:31 46° S
Cosmos 724 4.3 02:34:12 10° NNW 02:40:22 83° WSW 02:44:18 24° SSE
Cosmos 1844 4.1 02:38:42 37° SSE 02:40:42 54° ESE 02:46:18 10° NNE
Resurs 1-4 Rocket 4.1 02:39:09 10° NE 02:43:03 20° E 02:46:54 10° SE
Cosmos 1461 4.1 02:42:51 33° SE 02:43:52 37° ESE 02:48:08 10° NE
CBERS-1 4.1 02:40:07 10° NNE 02:45:16 71° ESE 02:47:04 40° S
CZ-4C R/B 4.1 02:41:30 10° WNW 02:46:52 22° WSW 02:46:52 22° WSW
ATLAS 5 CENTAUR R/B 3.8 02:42:01 10° NNW 02:47:32 38° NE 02:53:24 10° ESE
Cosmos 1934 Rocket 4.2 02:44:41 30° SSE 02:47:48 67° E 02:53:54 10° NNE
NOSS 2-2 (D) 3.8 02:48:46 46° SSE 02:49:29 52° ESE 02:53:59 10° NE
PSLV R/B 4.3 02:46:43 10° N 02:50:35 37° WNW 02:51:09 35° W
TIMED 4.4 02:50:21 56° S 02:51:14 81° ESE 02:55:37 10° NNE
SL-24 DEB 4.2 02:47:12 10° N 02:51:52 77° W 02:53:05 49° SSW
Cosmos 2278 Rocket 2.9 02:50:51 28° SSE 02:53:22 46° ESE 02:58:46 10° NE
Okean 1 3.3 02:50:45 10° NNW 02:54:42 61° W 02:55:00 59° WSW
ADEOS 3.9 02:49:36 10° NNE 02:54:47 59° E 02:57:10 31° SSE
Cosmos 1140 Rocket 3.9 02:50:48 10° NNW 02:55:54 60° ENE 03:00:15 14° SSE
COSMOS 2406 3.4 02:51:12 10° NNW 02:56:47 51° WSW 02:58:32 38° SSW
Cosmos 1400 Rocket 4.4 02:55:08 20° SE 02:56:52 27° E 03:00:14 10° NNE
Okean 1 Rocket 3.1 02:58:17 50° SW 02:59:16 65° W 03:03:43 10° N
UNK 4.3 02:57:17 29° SSW 03:01:24 51° SSE 03:05:04 10° ENE
Cosmos 1633 3.8 03:00:12 27° SE 03:01:25 36° E 03:04:47 10° NNE
Okean 1-7 Rocket 3.6 02:57:12 10° NNW 03:01:46 69° W 03:03:04 45° SSW
Cosmos 489 Rocket 4.4 02:56:19 10° NNW 03:02:34 77° WSW 03:06:35 23° S
COSMOS 2487 3.3 02:59:34 10° N 03:03:07 49° ENE 03:05:08 22° SE
NOSS 2-2 (C) 3.5 03:02:48 49° SSW 03:03:52 74° ESE 03:08:33 10° NE
Cosmos 2082 Rocket 4.3 03:07:04 10° N 03:11:57 28° NE 03:16:48 10° ESE
Cosmos 407 Rocket 4.2 03:08:45 10° NW 03:13:22 34° W 03:14:14 32° WSW
Meteor 2-14 Rocket 4.4 03:10:37 28° S 03:13:58 89° W 03:20:05 10° N
Cosmos 1602 3.6 03:13:40 48° SSW 03:14:38 81° W 03:18:30 10° N
Cosmos 1850 Rocket 4.2 03:10:41 10° NNW 03:15:56 70° ENE 03:21:11 10° SSE
Okean O Rocket 4.2 03:14:02 10° ENE 03:16:17 14° E 03:18:30 10° ESE
Cosmos 1025 Rocket 3.0 03:13:33 10° N 03:17:52 83° E 03:20:14 26° SSE
Cosmos 1741 Rocket 4.2 03:13:40 10° NNW 03:18:57 72° ENE 03:24:10 10° SSE
Abrixas rocket 4.5 03:17:45 10° WNW 03:20:32 23° N 03:23:20 10° NE
Cosmos 1455 Rocket 4.2 03:19:10 16° SSE 03:22:20 41° E 03:26:31 10° NNE
Meteor 2-21 Rocket 4.5 03:19:12 29° SSW 03:22:24 67° W 03:28:30 10° N
SME Rocket 4.2 03:19:09 10° SE 03:22:39 40° ENE 03:26:41 10° N
Meteor 2-15 4.4 03:18:14 10° N 03:24:25 81° W 03:29:07 18° S
Meteor 2-4 Rocket 3.8 03:19:21 10° N 03:24:44 71° E 03:29:56 11° SSE
SL-08 R/B 3.9 03:23:17 32° SW 03:24:48 40° W 03:29:25 10° NNW
Spot 4 Rocket 4.0 03:20:18 10° NNE 03:25:29 85° WNW 03:28:20 27° SSW
Cosmos 1605 Rocket 3.9 03:21:37 24° S 03:25:35 88° W 03:31:54 10° N
GP-B 3.9 03:21:35 10° NNW 03:25:41 36° W 03:26:58 30° WSW
Cosmos 1315 Rocket 4.1 03:23:05 16° SSE 03:25:53 36° E 03:29:37 10° NNE
Cosmos 1821 Rocket 4.4 03:23:32 27° SW 03:26:50 52° WNW 03:33:05 10° N
SL-16 R/B 2.8 03:20:57 10° SSE 03:27:08 70° ENE 03:33:19 10° N
NOSS 2-2 (E) 3.9 03:27:13 31° WSW 03:29:05 59° NW 03:33:59 10° NNE
NPP 4.4 03:24:32 10° N 03:29:32 40° WNW 03:32:08 24° WSW
SL-27 R/B 4.5 03:27:33 10° NW 03:29:14 17° W 03:29:14 17° W
Cosmos 2123 Rocket 4.0 03:24:23 10° NNW 03:30:42 70° W 03:35:24 19° S
OPS 6432 4.3 03:30:20 44° SW 03:31:13 71° NW 03:34:19 10° NNE
ERS-2 3.7 03:41:03 10° NNW 03:44:03 24° WNW 03:45:16 20° W
IRS-1D 3.4 03:40:01 10° NNE 03:45:06 88° WNW 03:48:39 19° SSW
APEX 4.1 03:43:53 19° SSE 03:45:25 31° ESE 03:48:25 10° NE
CZ-2D R/B 2.3 03:40:16 10° NNE 03:45:44 76° ESE 03:50:19 15° S
USA 234 3.4 03:40:33 10° SSE 03:46:48 48° SW 03:53:05 10° WNW
Cosmos 1544 Rocket 3.5 03:45:24 23° SSW 03:48:05 72° W 03:52:29 10° N
Okean 2 3.3 03:46:00 10° N 03:50:07 86° W 03:53:48 13° S
Cosmos 614 Rocket 3.9 03:45:04 10° NNW 03:50:13 67° WSW 03:55:16 10° S
UNKNOWN OBJECT B 3.4 03:46:31 10° NNE 03:50:35 58° E 03:54:00 14° S
Cosmos 1833 Rocket 3.9 03:46:52 10° NNW 03:52:14 43° ENE 03:57:33 10° SE
Cosmos 1536 3.5 03:50:57 25° SW 03:52:50 39° WNW 03:56:40 10° N
MTI 4.0 03:55:11 10° SSE 03:58:29 74° ENE 04:01:47 10° N
CENTAUR R/B 3.5 03:51:20 10° NW 03:58:39 42° WSW 04:06:15 10° S
Cosmos 2173 Rocket 4.2 03:55:09 10° S 04:01:12 70° E 04:07:20 10° NNE
USA 161 2.9 04:01:36 21° WSW 04:01:49 21° W 04:04:09 10° NW
Gbstr 26 Del rocket 4.3 04:00:24 10° W 04:03:53 29° NNW 04:07:10 10° NE
Cosmos 1174 3.8 04:02:53 10° NNW 04:06:32 65° ENE 04:09:37 10° SE
EO 1 Del DPAF 3.6 04:06:51 14° S 04:09:59 45° W 04:13:44 10° NNW
Cosmos 1844 Rocket 4.3 04:06:36 11° WSW 04:10:45 23° NW 04:15:11 10° N
Cosmos 1892 Rocket 4.2 04:08:01 10° NNW 04:12:00 36° W 04:15:12 14° SSW
Cosmos 1802 Rocket 4.1 04:07:41 10° S 04:13:48 77° E 04:19:57 10° N
ARIANE 5 R/B 3.1 04:09:31 10° N 04:14:12 42° WNW 04:18:07 14° SW
Cosmos 1459 Rocket 4.1 04:08:26 10° S 04:14:47 89° W 04:21:07 10° N
Cosmos 1110 Rocket 4.0 04:12:20 12° SSW 04:17:11 85° WNW 04:22:31 10° NNE
IRS-1C Rocket 4.2 04:17:34 10° NNE 04:22:52 82° ESE 04:28:07 10° SSW
Cosmos 2100 Rocket 4.0 04:16:44 10° SSW 04:22:57 73° W 04:29:19 10° N
Resurs 1-4 Rocket 2.5 04:18:01 10° N 04:23:08 49° WNW 04:27:59 11° SW
CZ-2D R/B 3.4 04:21:58 10° N 04:25:58 74° WNW 04:30:01 10° SSW
ATLAS 5 CENTAUR R/B 2.8 04:26:39 10° NW 04:32:22 43° WSW 04:38:24 10° S
BREEZE-M DEB (TANK) 3.1 04:28:56 12° SW 04:33:06 64° SE 04:36:35 10° ENE
Cosmos 1400 Rocket 4.5 04:30:49 11° WSW 04:33:24 19° WNW 04:36:17 10° NNW
Thor Agena Rocket 3.7 04:30:32 10° SSE 04:35:42 80° ENE 04:40:51 10° NNW
Cosmos 2278 Rocket 3.5 04:32:54 10° WSW 04:37:38 27° NW 04:42:26 10° N
Cosmos 1331 Rocket 4.1 04:32:58 10° SSW 04:38:09 63° WNW 04:43:19 10° NNE
Cosmos 2297 4.2 04:33:17 11° SW 04:38:38 48° WNW 04:44:09 10° NNE
CZ-4B DEB 4.4 04:35:49 10° NNE 04:41:24 78° ESE 04:46:58 10° S
Cosmos 1602 Rocket 3.8 04:38:14 10° NNW 04:42:24 48° W 04:46:36 10° SSW
ADEOS II 3.9 04:39:08 10° NNE 04:43:48 31° E 04:48:26 10° SSE
Okean-O 3.9 04:41:07 10° NNE 04:45:21 42° E 04:49:33 10° S
Tsikada Rocket 4.3 04:43:24 10° N 04:49:35 76° E 04:55:47 10° SSE
Okean O Rocket 1.9 04:48:44 10° N 04:52:57 51° WNW 04:57:09 10° SSW
CZ-4B R/B 3.4 04:49:20 10° N 04:55:00 74° WNW 05:00:37 10° SSW
Cosmos 2082 Rocket 2.6 04:50:48 10° NW 04:56:12 44° WSW 05:01:34 10° S
CZ-3 Stage 3 4.3 04:58:45 10° WSW 05:25:08 43° S 05:30:45 10° ESE
